When you browse on this site, cookies collect data to enhance your experience and personalize the content and advertising you see.
Visit our Privacy Policy to learn more. By continuing to use the site, you agree to this use of cookies and data.
  • In Latvia
  • List of Countries
  • For 7 days
  • Water Temperature
  • Weather Map
  • Weather Widgets
  • user-avatar
    Login

    Hourly Weather Charlotte

    Today, 18 September, Wednesday

    Time Temperature Precipitation Wind Pressure Humidity
    00:00 +24°C° 0.1 mm 3 mps 744 mmHg 82%
    01:00 +24°C° 0.1 mm 3 mps 744 mmHg 86%
    02:00 +22°C° 0.5 mm 3 mps 744 mmHg 86%
    03:00 +22°C° 0.5 mm 3 mps 744 mmHg 86%
    04:00 +21°C° 0.5 mm 3 mps 744 mmHg 87%
    05:00 +21°C° 0.2 mm 3 mps 744 mmHg 86%
    06:00 +21°C° 0.2 mm 3 mps 745 mmHg 85%
    07:00 +20°C° 0.2 mm 3 mps 745 mmHg 83%
    08:00 +21°C° 0 mm 3 mps 745 mmHg 76%
    09:00 +22°C° 0 mm 3 mps 746 mmHg 69%
    10:00 +22°C° 0 mm 3 mps 746 mmHg 62%
    11:00 +24°C° 0 mm 3 mps 746 mmHg 58%
    12:00 +25°C° 0 mm 3 mps 746 mmHg 54%
    13:00 +26°C° 0 mm 2 mps 746 mmHg 50%
    14:00 +26°C° 0 mm 2 mps 746 mmHg 51%
    15:00 +26°C° 0 mm 2 mps 745 mmHg 51%
    16:00 +27°C° 0 mm 2 mps 745 mmHg 52%
    17:00 +25°C° 0 mm 2 mps 745 mmHg 56%
    18:00 +24°C° 0 mm 2 mps 745 mmHg 61%
    19:00 +23°C° 0 mm 2 mps 746 mmHg 65%
    20:00 +21°C° 0 mm 2 mps 746 mmHg 66%
    21:00 +21°C° 0 mm 2 mps 747 mmHg 68%
    22:00 +20°C° 0 mm 2 mps 747 mmHg 69%
    23:00 +19°C° 0 mm 2 mps 747 mmHg 70%

    Tomorrow, 19 September, Thursday

    Time Temperature Precipitation Wind Pressure Humidity
    00:00 +18°C° 0 mm 2 mps 747 mmHg 71%
    01:00 +18°C° 0 mm 2 mps 747 mmHg 72%
    02:00 +17°C° 0 mm 2 mps 747 mmHg 75%
    03:00 +16°C° 0 mm 2 mps 747 mmHg 78%
    04:00 +16°C° 0 mm 2 mps 748 mmHg 80%
    05:00 +16°C° 0 mm 2 mps 748 mmHg 81%
    06:00 +16°C° 0 mm 2 mps 748 mmHg 81%
    07:00 +16°C° 0 mm 3 mps 748 mmHg 81%
    08:00 +17°C° 0 mm 3 mps 749 mmHg 72%
    09:00 +19°C° 0 mm 3 mps 749 mmHg 64%
    10:00 +20°C° 0 mm 4 mps 749 mmHg 56%
    11:00 +21°C° 0 mm 4 mps 749 mmHg 52%
    12:00 +22°C° 0 mm 3 mps 749 mmHg 47%
    13:00 +24°C° 0 mm 3 mps 749 mmHg 43%
    14:00 +24°C° 0 mm 3 mps 748 mmHg 42%
    15:00 +24°C° 0 mm 3 mps 748 mmHg 42%
    16:00 +25°C° 0 mm 3 mps 748 mmHg 41%
    17:00 +23°C° 0 mm 2 mps 748 mmHg 46%
    18:00 +20°C° 0 mm 2 mps 748 mmHg 51%
    19:00 +19°C° 0 mm 2 mps 748 mmHg 57%
    20:00 +18°C° 0 mm 2 mps 748 mmHg 62%
    21:00 +17°C° 0 mm 2 mps 749 mmHg 68%
    22:00 +16°C° 0 mm 2 mps 749 mmHg 73%
    23:00 +16°C° 0 mm 1 mps 749 mmHg 76%

    Day after tomorrow, 20 September, Friday

    Time Temperature Precipitation Wind Pressure Humidity
    00:00 +15°C° 0 mm 1 mps 749 mmHg 79%
    01:00 +14°C° 0 mm 1 mps 749 mmHg 83%
    02:00 +14°C° 0 mm 1 mps 749 mmHg 84%
    03:00 +14°C° 0 mm 1 mps 749 mmHg 85%
    04:00 +13°C° 0 mm 1 mps 749 mmHg 86%
    05:00 +14°C° 0 mm 1 mps 750 mmHg 85%
    06:00 +14°C° 0 mm 1 mps 750 mmHg 85%
    07:00 +14°C° 0 mm 1 mps 750 mmHg 84%
    08:00 +18°C° 0 mm 1 mps 750 mmHg 74%
    09:00 +20°C° 0 mm 1 mps 751 mmHg 63%
    10:00 +23°C° 0 mm 1 mps 751 mmHg 52%
    11:00 +24°C° 0 mm 1 mps 750 mmHg 47%
    12:00 +26°C° 0 mm 1 mps 750 mmHg 41%
    13:00 +27°C° 0 mm 1 mps 749 mmHg 36%
    14:00 +27°C° 0 mm 1 mps 749 mmHg 36%
    15:00 +27°C° 0 mm 1 mps 749 mmHg 35%
    16:00 +27°C° 0 mm 1 mps 748 mmHg 35%
    17:00 +25°C° 0 mm 1 mps 748 mmHg 41%
    18:00 +23°C° 0 mm 1 mps 748 mmHg 48%
    19:00 +20°C° 0 mm 1 mps 749 mmHg 54%
    20:00 +20°C° 0 mm 1 mps 749 mmHg 56%
    21:00 +17°C° 0 mm 0 mps 749 mmHg 57%
    22:00 +17°C° 0 mm 0 mps 749 mmHg 59%
    23:00 +16°C° 0 mm 0 mps 749 mmHg 61%

    21 September, Saturday

    Time Temperature Precipitation Wind Pressure Humidity
    00:00 +18°C° 0 mm 1 mps 749 mmHg 63%
    01:00 +16°C° 0 mm 1 mps 749 mmHg 65%
    02:00 +16°C° 0 mm 1 mps 749 mmHg 68%
    03:00 +15°C° 0 mm 1 mps 749 mmHg 72%
    04:00 +15°C° 0 mm 1 mps 749 mmHg 75%
    05:00 +15°C° 0 mm 1 mps 749 mmHg 77%
    06:00 +16°C° 0 mm 1 mps 749 mmHg 79%
    07:00 +16°C° 0 mm 1 mps 750 mmHg 81%
    08:00 +20°C° 0 mm 1 mps 750 mmHg 69%
    09:00 +22°C° 0 mm 1 mps 750 mmHg 58%
    10:00 +25°C° 0 mm 1 mps 750 mmHg 46%
    11:00 +27°C° 0 mm 1 mps 750 mmHg 41%
    12:00 +28°C° 0 mm 1 mps 749 mmHg 36%
    13:00 +29°C° 0 mm 1 mps 749 mmHg 30%
    14:00 +29°C° 0 mm 1 mps 748 mmHg 30%
    15:00 +30°C° 0 mm 1 mps 748 mmHg 31%
    16:00 +30°C° 0 mm 1 mps 748 mmHg 31%
    17:00 +27°C° 0 mm 1 mps 748 mmHg 37%
    18:00 +25°C° 0 mm 1 mps 748 mmHg 43%
    19:00 +21°C° 0 mm 0 mps 747 mmHg 49%
    20:00 +20°C° 0 mm 0 mps 748 mmHg 53%
    21:00 +21°C° 0 mm 1 mps 748 mmHg 56%
    22:00 +20°C° 0 mm 1 mps 748 mmHg 60%
    23:00 +20°C° 0 mm 1 mps 748 mmHg 62%

    22 September, Sunday

    Time Temperature Precipitation Wind Pressure Humidity
    00:00 +20°C° 0 mm 1 mps 748 mmHg 65%
    01:00 +18°C° 0 mm 2 mps 748 mmHg 67%
    02:00 +18°C° 0 mm 2 mps 748 mmHg 70%
    03:00 +17°C° 0 mm 2 mps 748 mmHg 72%
    04:00 +17°C° 0 mm 2 mps 748 mmHg 74%
    05:00 +17°C° 0 mm 2 mps 748 mmHg 75%
    06:00 +17°C° 0 mm 2 mps 748 mmHg 77%
    07:00 +17°C° 0 mm 2 mps 748 mmHg 78%
    08:00 +20°C° 0 mm 2 mps 748 mmHg 70%
    09:00 +23°C° 0 mm 2 mps 748 mmHg 62%
    10:00 +26°C° 0 mm 2 mps 748 mmHg 54%
    11:00 +27°C° 0 mm 2 mps 748 mmHg 49%
    12:00 +29°C° 0 mm 2 mps 747 mmHg 44%
    13:00 +30°C° 0 mm 3 mps 746 mmHg 39%
    14:00 +30°C° 0 mm 3 mps 746 mmHg 39%
    15:00 +30°C° 0 mm 2 mps 745 mmHg 39%
    16:00 +30°C° 0 mm 2 mps 745 mmHg 39%
    17:00 +28°C° 0 mm 2 mps 745 mmHg 45%
    18:00 +26°C° 0 mm 2 mps 745 mmHg 51%
    19:00 +24°C° 0 mm 1 mps 744 mmHg 57%
    20:00 +23°C° 0 mm 2 mps 745 mmHg 60%
    21:00 +21°C° 0 mm 2 mps 745 mmHg 63%
    22:00 +20°C° 0 mm 2 mps 745 mmHg 66%
    23:00 +20°C° 0 mm 2 mps 745 mmHg 68%

    23 September, Monday

    Time Temperature Precipitation Wind Pressure Humidity
    00:00 +19°C° 0 mm 2 mps 745 mmHg 70%
    01:00 +19°C° 0 mm 2 mps 744 mmHg 72%
    02:00 +19°C° 0 mm 2 mps 744 mmHg 75%
    03:00 +18°C° 0 mm 2 mps 744 mmHg 78%
    04:00 +18°C° 0 mm 2 mps 744 mmHg 81%
    05:00 +18°C° 0 mm 2 mps 744 mmHg 80%
    06:00 +18°C° 0 mm 2 mps 744 mmHg 80%
    07:00 +18°C° 0 mm 2 mps 744 mmHg 79%
    08:00 +20°C° 0 mm 2 mps 744 mmHg 71%
    09:00 +24°C° 0 mm 2 mps 745 mmHg 64%
    10:00 +26°C° 0 mm 2 mps 745 mmHg 56%
    11:00 +28°C° 0 mm 2 mps 744 mmHg 51%
    12:00 +30°C° 0 mm 2 mps 744 mmHg 45%
    13:00 +31°C° 0 mm 2 mps 744 mmHg 39%
    14:00 +31°C° 0 mm 2 mps 743 mmHg 40%
    15:00 +31°C° 0 mm 2 mps 742 mmHg 40%
    16:00 +31°C° 0 mm 2 mps 742 mmHg 40%
    17:00 +30°C° 0 mm 1 mps 742 mmHg 46%
    18:00 +28°C° 0 mm 1 mps 742 mmHg 51%
    19:00 +26°C° 0 mm 1 mps 742 mmHg 56%
    20:00 +26°C° 0 mm 1 mps 742 mmHg 57%
    21:00 +25°C° 0 mm 1 mps 743 mmHg 58%
    22:00 +25°C° 0 mm 1 mps 743 mmHg 60%
    23:00 +24°C° 0 mm 1 mps 743 mmHg 62%
    Show more